[[{"header":{"parameterUnit":"m.s-1","parameterCategory":1,"la1":30.2991,"la2":30.254,"lo1":-89.0895,"lo2":-89.0444,"dy":0.0017,"dx":0.0017,"nx":28,"ny":28,"refTime":"2024-04-11T21:00:00:Z","depth":0,"parameterNumber":2,"parameterNumberName":"U-component_of_WINDS"},"data":[0,0,0,0,0,0,0,0,0,0,0,0,0,0,0,0,0,0,0,0,0,0,0,0,0,0,0,0,0,0,0,0,0,0,0,0,0,0,0,0,0,0,0,0,0,0,0,0,0,0,0,0,0,0,0,0,0,0,-1.5307,-1.5307,0,-1.5349,-1.535,-1.535,-1.529,-1.5288,-1.5285,-1.5283,-1.5327,-1.533,-1.5333,0,0,0,0,0,0,0,0,0,0,0,0,0,-1.5175,-1.5177,-1.5307,-1.5308,-1.5308,-1.5349,-1.535,-1.535,-1.529,-1.5287,-1.5285,-1.5282,-1.5326,-1.533,-1.5334,0,0,0,0,0,0,0,0,0,0,0,0,0,-1.5226,-1.5178,-1.5307,-1.5283,-1.5281,-1.5349,-1.535,-1.535,-1.5291,-1.5287,-1.5284,-1.5281,-1.5325,-1.5329,-1.5334,-1.5428,0,0,-1.5349,-1.5351,0,0,0,0,0,0,0,0,-1.5223,-1.5231,-1.5286,-1.5285,-1.5283,-1.5311,-1.5319,-1.5376,-1.5291,-1.5287,-1.5283,-1.528,-1.5324,-1.5329,-1.5344,-1.543,-1.5432,-1.5349,-1.5352,-1.5354,-1.5355,0,0,0,0,0,0,0,-1.522,-1.5229,-1.5324,-1.5287,-1.5285,-1.527,-1.5274,-1.533,-1.5323,-1.5287,-1.5283,-1.5289,-1.5323,-1.534,-1.5344,-1.5432,-1.5349,-1.5353,-1.5356,-1.5358,-1.5598,-1.5601,0,0,0,0,0,0,-1.5219,-1.5226,-1.5322,-1.5325,-1.5245,-1.5275,-1.5279,-1.5305,-1.5322,-1.5322,-1.5291,-1.5286,-1.5333,-1.5339,-1.5346,-1.5458,-1.5354,-1.5358,-1.5361,-1.5594,-1.5598,-1.5602,0,0,0,0,0,0,-1.5216,-1.5228,-1.5321,-1.5275,-1.5285,-1.5281,-1.531,-1.5308,-1.5324,-1.5326,-1.5324,-1.531,-1.5331,-1.5339,-1.5408,-1.5458,-1.536,-1.5365,-1.559,-1.5595,-1.56,-1.5681,0,0,0,0,0,0,-1.5213,-1.5228,-1.5263,-1.5276,-1.5288,-1.5382,-1.5313,-1.5311,-1.5332,-1.5325,-1.5342,-1.5342,-1.5329,-1.5401,-1.5413,-1.5463,-1.5368,-1.5585,-1.5592,-1.5599,-1.5674,-1.5689,-1.5701,0,0,0,0,0,-1.5208,-1.5284,-1.5265,-1.5277,-1.5332,-1.5385,-1.5392,-1.5375,-1.5337,-1.5373,-1.5373,-1.5341,-1.545,-1.5409,-1.5421,-1.5474,-1.5582,-1.559,-1.5598,-1.5668,-1.5686,-1.5701,0,0,0,0,0,0,-1.5277,-1.5285,-1.5264,-1.5346,-1.5366,-1.5375,-1.542,-1.5394,-1.5425,-1.5417,-1.5395,-1.54,-1.5474,-1.548,-1.5433,-1.5565,-1.551,-1.5521,-1.5559,-1.5576,-1.5589,-1.5587,-1.5372,0,0,0,0,0,-1.5302,-1.5345,-1.5349,-1.5421,-1.5431,-1.5424,-1.5447,-1.5432,-1.5451,-1.5459,-1.5465,-1.5485,-1.5523,-1.5549,-1.5585,-1.5674,-1.5677,-1.5716,-1.573,-1.5741,-1.5751,-1.5799,-1.5817,-1.5628,-1.5628,-1.5628,0,0,-1.5354,-1.5363,-1.5391,-1.5435,-1.5448,-1.5493,-1.5431,-1.5481,-1.5515,-1.5466,-1.5532,-1.5537,-1.5558,-1.5638,-1.5673,-1.5645,-1.5803,-1.5751,-1.576,-1.5764,-1.5809,-1.5827,-1.5843,-1.5634,-1.5633,-1.5632,0,0,-1.5471,-1.5482,-1.5544,-1.5558,-1.5579,-1.5573,-1.5588,-1.5602,-1.5603,-1.5669,-1.5634,-1.5673,-1.574,-1.5756,-1.5774,-1.5897,-1.5869,-1.5909,-1.5981,-1.6028,-1.6043,-1.6056,-1.6102,-1.6118,-1.5919,-1.5919,-1.5919,0,-1.5533,-1.5599,-1.5579,-1.5631,-1.5652,-1.561,-1.5673,-1.5688,-1.5719,-1.5735,-1.5703,-1.5787,-1.5797,-1.5881,-1.5911,-1.5926,-1.5943,-1.5908,-1.6042,-1.6055,-1.6067,-1.6111,-1.6128,-1.5924,-1.5923,-1.5923,-1.5922,0,-1.5675,-1.5721,-1.5768,-1.58,-1.5826,-1.5883,-1.5872,-1.59,-1.5883,-1.5881,-1.5949,-1.596,-1.5998,-1.6016,-1.6,-1.6098,-1.608,-1.6046,-1.599,-1.6091,-1.6131,-1.6147,-1.5931,-1.5929,-1.5928,-1.5927,0,0,-1.5838,-1.5858,-1.5875,-1.589,-1.591,-1.5945,-1.6001,-1.6038,-1.6063,-1.6086,-1.6133,-1.619,-1.6159,-1.6178,-1.6163,-1.6205,-1.6304,-1.6165,-1.6166,-1.6192,-1.6414,-1.6441,-1.6461,-1.6285,-1.6288,-1.629,-1.6413,0,-1.5956,-1.6053,-1.6036,-1.613,-1.6173,-1.6134,-1.6182,-1.62,-1.62,-1.6236,-1.6235,-1.6277,-1.6231,-1.6243,-1.6282,-1.6284,-1.6348,-1.6274,-1.6329,-1.6331,-1.6327,-1.6481,-1.651,-1.6625,-1.6428,-1.6431,-1.6433,0,-1.6108,-1.6137,-1.6235,-1.6249,-1.6266,-1.6311,-1.6343,-1.6378,-1.6398,-1.6394,-1.6416,-1.6394,-1.6449,-1.6391,-1.6469,-1.6419,-1.644,-1.6444,-1.6448,-1.6454,-1.639,-1.6493,-1.6661,-1.668,-1.6457,-1.6455,-1.6453,0,-1.6219,-1.6283,-1.635,-1.6363,-1.638,-1.6412,-1.6421,-1.6437,-1.646,-1.6489,-1.6504,-1.6538,-1.6558,-1.6585,-1.6572,-1.6531,-1.6653,-1.6593,-1.6652,-1.6653,-1.6681,-1.668,-1.6857,-1.6692,-1.6692,-1.6691,-1.6691,0,-1.6355,-1.6417,-1.6401,-1.6442,-1.6511,-1.6491,-1.6559,-1.6563,-1.6577,-1.6619,-1.6587,-1.6627,-1.6607,-1.6645,-1.6636,-1.6702,-1.671,-1.671,-1.6707,-1.6714,-1.6714,-1.6729,-1.6721,-1.6696,-1.6695,-1.6694,-1.6693,0,-1.6492,-1.6483,-1.6554,-1.6564,-1.6568,-1.6619,-1.6628,-1.6667,-1.6663,-1.6717,-1.6728,-1.6723,-1.6767,-1.6757,-1.6804,-1.6798,-1.6882,-1.6867,-1.6876,-1.6873,-1.6933,-1.6928,-1.7127,-1.7153,-1.697,-1.6971,-1.6973,0,-1.6579,-1.6626,-1.6642,-1.6668,-1.6679,-1.6721,-1.6745,-1.6726,-1.6753,-1.6778,-1.6815,-1.6855,-1.6887,-1.6959,-1.696,-1.6996,-1.6984,-1.7051,-1.699,-1.6995,-1.6987,-1.6985,-1.6991,-1.7064,-1.7066,-1.7068,-1.7069,0,-1.6737,-1.673,-1.6766,-1.6801,-1.683,-1.6856,-1.688,-1.6903,-1.6886,-1.6917,-1.6962,-1.6987,-1.7035,-1.7077,-1.711,-1.7119,-1.7093,-1.7089,-1.7105,-1.7113,-1.7117,-1.7117,-1.6911,-1.7085,-1.7083,-1.7082,-1.7081,-1.7081,-1.6853,-1.6893,-1.6911,-1.6952,-1.6968,-1.699,-1.7028,-1.7029,-1.7066,-1.7105,-1.7091,-1.7142,-1.716,-1.7203,-1.7216,-1.7256,-1.723,-1.7253,-1.7259,-1.7265,-1.7274,-1.7109,-1.7261,-1.7261,-1.726,-1.726,-1.726,0,-1.701,-1.702,-1.7057,-1.7091,-1.7124,-1.7095,-1.7119,-1.7148,-1.7194,-1.7213,-1.7245,-1.7296,-1.7336,-1.734,-1.7378,-1.7409,-1.7398,-1.742,-1.7418,-1.7421,-1.7293,-1.7277,-1.7428,-1.7428,-1.7428,-1.7428,-1.7428,-1.7428,-1.7096,-1.7163,-1.7159,-1.7234,-1.7242,-1.7293,-1.7309,-1.733,-1.7345,-1.7404,-1.7437,-1.7439,-1.7452,-1.7491,-1.7526,-1.7526,-1.7542,-1.757,-1.7565,-1.7446,-1.743,-1.7414,-1.7398,-1.7573,-1.7573,-1.7689,-1.7691,-1.7691]},{"header":{"parameterUnit":"m.s-1","parameterCategory":1,"la1":30.2991,"la2":30.254,"lo1":-89.0895,"lo2":-89.0444,"dy":0.0017,"dx":0.0017,"nx":28,"ny":28,"refTime":"2024-04-11T21:00:00:Z","depth":0,"parameterNumber":3,"parameterNumberName":"V-component_of_WINDS"},"data":[0,0,0,0,0,0,0,0,0,0,0,0,0,0,0,0,0,0,0,0,0,0,0,0,0,0,0,0,0,0,0,0,0,0,0,0,0,0,0,0,0,0,0,0,0,0,0,0,0,0,0,0,0,0,0,0,0,0,-1.8782,-1.8783,0,-1.8887,-1.8888,-1.889,-1.8899,-1.8898,-1.8897,-1.8896,-1.9002,-1.9006,-1.9009,0,0,0,0,0,0,0,0,0,0,0,0,0,-1.8589,-1.8592,-1.8782,-1.8783,-1.8785,-1.8887,-1.8889,-1.889,-1.8899,-1.8898,-1.8897,-1.8895,-1.9001,-1.9005,-1.901,0,0,0,0,0,0,0,0,0,0,0,0,0,-1.8681,-1.8593,-1.8782,-1.8802,-1.8805,-1.8887,-1.8889,-1.889,-1.89,-1.8898,-1.8896,-1.8895,-1.8999,-1.9005,-1.901,-1.908,0,0,-1.9028,-1.9031,0,0,0,0,0,0,0,0,-1.8676,-1.8688,-1.8798,-1.8801,-1.8804,-1.8878,-1.8859,-1.8954,-1.89,-1.8863,-1.8896,-1.8894,-1.8962,-1.8971,-1.8994,-1.9084,-1.9089,-1.9029,-1.9032,-1.9035,-1.9036,0,0,0,0,0,0,0,-1.8669,-1.8684,-1.8824,-1.8799,-1.8803,-1.8805,-1.8816,-1.8877,-1.8921,-1.8866,-1.8867,-1.888,-1.8963,-1.8988,-1.8997,-1.9091,-1.9028,-1.9034,-1.9037,-1.9039,-1.9243,-1.9245,0,0,0,0,0,0,-1.8659,-1.8678,-1.882,-1.8827,-1.8734,-1.881,-1.8823,-1.8856,-1.892,-1.8928,-1.8881,-1.888,-1.8979,-1.899,-1.9,-1.9086,-1.9035,-1.904,-1.9043,-1.9242,-1.9244,-1.9246,0,0,0,0,0,0,-1.8655,-1.8672,-1.8816,-1.8753,-1.8771,-1.8815,-1.8853,-1.8859,-1.8884,-1.8931,-1.8939,-1.8899,-1.8978,-1.8992,-1.906,-1.909,-1.9043,-1.9048,-1.9239,-1.9242,-1.9245,-1.9257,0,0,0,0,0,0,-1.865,-1.867,-1.8697,-1.8753,-1.8775,-1.8874,-1.8854,-1.8862,-1.8894,-1.8894,-1.895,-1.8958,-1.8978,-1.9051,-1.9066,-1.9097,-1.9052,-1.9237,-1.9241,-1.9244,-1.9254,-1.926,-1.9265,0,0,0,0,0,-1.8643,-1.8696,-1.8699,-1.8716,-1.8809,-1.8876,-1.8888,-1.8911,-1.8897,-1.8924,-1.8954,-1.8956,-1.9084,-1.9058,-1.9075,-1.9108,-1.9235,-1.9239,-1.9244,-1.9252,-1.9259,-1.9265,0,0,0,0,0,0,-1.8642,-1.8704,-1.8707,-1.8781,-1.8823,-1.8877,-1.8913,-1.8918,-1.8965,-1.8963,-1.8989,-1.9001,-1.9068,-1.9095,-1.9065,-1.9178,-1.9158,-1.9166,-1.9159,-1.9166,-1.9171,-1.9163,-1.9057,0,0,0,0,0,-1.865,-1.87,-1.8751,-1.8811,-1.8832,-1.8869,-1.8898,-1.8913,-1.8958,-1.8975,-1.9011,-1.9054,-1.9104,-1.9136,-1.9185,-1.9258,-1.9271,-1.9289,-1.9295,-1.9299,-1.9305,-1.9346,-1.9355,-1.926,-1.926,-1.926,0,0,-1.8668,-1.8708,-1.8737,-1.8812,-1.8846,-1.8896,-1.8884,-1.8937,-1.8975,-1.8983,-1.905,-1.9077,-1.9127,-1.9198,-1.9231,-1.9222,-1.9334,-1.9304,-1.9307,-1.9312,-1.9352,-1.9361,-1.9369,-1.9263,-1.9263,-1.9262,0,0,-1.8726,-1.8761,-1.8815,-1.885,-1.8903,-1.8927,-1.894,-1.8994,-1.9013,-1.908,-1.9088,-1.9132,-1.9218,-1.9253,-1.9283,-1.9355,-1.9358,-1.937,-1.9398,-1.9438,-1.9445,-1.9452,-1.9478,-1.9487,-1.9376,-1.9376,-1.9376,0,-1.8741,-1.8818,-1.8842,-1.8896,-1.8928,-1.8939,-1.8994,-1.9027,-1.9092,-1.9114,-1.9103,-1.9212,-1.9246,-1.9325,-1.9343,-1.9366,-1.9382,-1.9363,-1.9442,-1.9449,-1.9456,-1.9481,-1.9491,-1.9377,-1.9377,-1.9377,-1.9377,0,-1.8834,-1.8887,-1.8924,-1.8988,-1.9025,-1.9079,-1.9111,-1.9145,-1.9156,-1.9181,-1.925,-1.9291,-1.9349,-1.9369,-1.938,-1.945,-1.9443,-1.9437,-1.9417,-1.9466,-1.949,-1.95,-1.9379,-1.9378,-1.9378,-1.9378,0,0,-1.8895,-1.8972,-1.8985,-1.9014,-1.9074,-1.9115,-1.9169,-1.9226,-1.9255,-1.93,-1.9346,-1.9419,-1.9414,-1.9447,-1.9462,-1.9497,-1.9552,-1.9487,-1.9488,-1.9497,-1.9632,-1.9636,-1.9647,-1.9554,-1.9556,-1.9558,-1.9628,0,-1.896,-1.9058,-1.9081,-1.9165,-1.9214,-1.9225,-1.9272,-1.9314,-1.9339,-1.9384,-1.9411,-1.9463,-1.9452,-1.9472,-1.9507,-1.9537,-1.9579,-1.9533,-1.9597,-1.9599,-1.9585,-1.966,-1.9664,-1.9729,-1.9637,-1.9639,-1.964,0,-1.9049,-1.9096,-1.9185,-1.9238,-1.926,-1.9302,-1.9356,-1.9399,-1.9446,-1.9462,-1.9499,-1.9511,-1.9568,-1.9545,-1.9624,-1.9592,-1.962,-1.9639,-1.9642,-1.9649,-1.9623,-1.9669,-1.975,-1.9759,-1.9655,-1.9654,-1.9653,0,-1.9084,-1.9171,-1.9235,-1.926,-1.9323,-1.9353,-1.938,-1.9426,-1.9459,-1.9506,-1.9527,-1.958,-1.9609,-1.965,-1.9676,-1.9657,-1.9753,-1.9732,-1.9767,-1.9767,-1.9787,-1.9785,-1.9874,-1.9804,-1.9804,-1.9804,-1.9804,0,-1.9155,-1.9208,-1.9252,-1.9291,-1.9352,-1.9378,-1.9438,-1.9465,-1.9506,-1.9551,-1.9564,-1.9605,-1.9637,-1.9683,-1.9703,-1.9766,-1.9779,-1.9793,-1.9798,-1.9792,-1.979,-1.9811,-1.9807,-1.9807,-1.9806,-1.9806,-1.9805,0,-1.9205,-1.9236,-1.9307,-1.9361,-1.9376,-1.9419,-1.9465,-1.9504,-1.9529,-1.9586,-1.9601,-1.9641,-1.9696,-1.9726,-1.9795,-1.9809,-1.9878,-1.9881,-1.9863,-1.9865,-1.9899,-1.9895,-2.0003,-2.0019,-1.9939,-1.994,-1.994,0,-1.9248,-1.9289,-1.9349,-1.938,-1.9408,-1.9459,-1.9492,-1.952,-1.9555,-1.9612,-1.9643,-1.9699,-1.9746,-1.9833,-1.9868,-1.9921,-1.9925,-1.9959,-1.9933,-1.9926,-1.9925,-1.9923,-1.9927,-1.9963,-1.9964,-1.9965,-1.9965,0,-1.9321,-1.9334,-1.9382,-1.9437,-1.9477,-1.952,-1.9564,-1.9588,-1.9623,-1.9661,-1.9718,-1.9754,-1.9825,-1.988,-1.9936,-1.9964,-1.9971,-1.9973,-1.9984,-1.9979,-1.9967,-1.9974,-1.9875,-1.9971,-1.997,-1.997,-1.9969,-1.9969,-1.9369,-1.9406,-1.9454,-1.9508,-1.9543,-1.9584,-1.9623,-1.9654,-1.9702,-1.9762,-1.9775,-1.9835,-1.9881,-1.9957,-1.9987,-2.0034,-2.0027,-2.0043,-2.0047,-2.0051,-2.0052,-1.9959,-2.0044,-2.0044,-2.0044,-2.0044,-2.0044,0,-1.9443,-1.9474,-1.9523,-1.9584,-1.9626,-1.9629,-1.9677,-1.9712,-1.9765,-1.9808,-1.9853,-1.9918,-1.9972,-2.0012,-2.0067,-2.0097,-2.0101,-2.011,-2.0109,-2.0115,-2.0055,-2.004,-2.0106,-2.0106,-2.0106,-2.0106,-2.0106,-2.0106,-1.9486,-1.955,-1.957,-1.9652,-1.9683,-1.9742,-1.9769,-1.9807,-1.9841,-1.9914,-1.9959,-1.9984,-2.0026,-2.0084,-2.0134,-2.0144,-2.0163,-2.0172,-2.0183,-2.0126,-2.0119,-2.0113,-2.0099,-2.0176,-2.0176,-2.0239,-2.024,-2.024]}]]